Time[GMT],salinity[psu](1m),sigma_t[kg/m^3](1m),conductivity[msiemens/cm](1m),temperature[C](1m)
2006-02-23 20:00,31.134,24.808,28.405,2.91
2006-02-23 21:00,31.175,24.837,28.473,2.95
2006-02-23 22:00,31.188,24.850,28.456,2.91
2006-02-23 23:00,31.205,24.866,28.451,2.89
2006-02-24 00:00,,,,
2006-02-24 01:00,31.244,24.894,28.510,2.92
2006-02-24 02:00,31.232,24.886,28.479,2.90
2006-02-24 03:00,31.273,24.910,28.599,3.01
2006-02-24 04:00,31.223,24.876,28.503,2.94
2006-02-24 05:00,31.167,24.836,28.417,2.89
2006-02-24 06:00,31.162,24.833,28.394,2.87
2006-02-24 07:00,31.149,24.829,28.329,2.80
2006-02-24 08:00,,,,
2006-02-24 09:00,31.148,24.827,28.331,2.80
2006-02-24 10:00,31.148,24.825,28.353,2.83
2006-02-24 11:00,31.256,24.911,28.447,2.83
2006-02-24 12:00,31.235,24.893,28.435,2.84
2006-02-24 13:00,31.320,24.963,28.492,2.82
2006-02-25 08:00,31.081,24.779,28.229,2.74
2006-02-25 09:00,31.095,24.795,28.187,2.67
2006-02-25 10:00,,,,
2006-02-25 11:00,31.383,25.014,28.538,2.82
2006-02-25 12:00,31.243,24.907,28.376,2.76
2006-02-25 13:00,31.306,24.954,28.450,2.79
2006-02-25 14:00,31.245,24.908,28.377,2.76
2006-02-25 15:00,30.992,24.722,28.011,2.56
2006-02-25 16:00,31.018,24.734,28.120,2.67
2006-02-25 17:00,30.941,24.669,28.083,2.70
2006-02-25 18:00,30.907,24.638,28.102,2.76
2006-02-25 19:00,30.837,24.585,28.010,2.72
2006-02-25 20:00,30.774,24.538,27.935,2.69
2006-02-25 21:00,30.747,24.516,27.915,2.69
2006-02-25 22:00,30.735,24.515,27.810,2.57
2006-02-25 23:00,30.722,24.503,27.816,2.59
2006-02-26 00:00,30.749,24.523,27.863,2.62
2006-02-26 01:00,,,,
2006-02-26 02:00,,,,
2006-02-26 03:00,30.773,24.542,27.872,2.61
2006-02-26 04:00,,,,
2006-02-26 05:00,30.986,24.708,28.094,2.67
2006-02-26 06:00,31.054,24.761,28.165,2.69
2006-02-26 07:00,31.097,24.796,28.191,2.68
2006-02-26 08:00,31.046,24.760,28.106,2.62
2006-02-26 09:00,30.902,24.653,27.908,2.52
2006-02-26 10:00,31.026,24.747,28.047,2.57
2006-02-26 11:00,31.027,24.752,28.009,2.52
2006-02-26 12:00,30.872,24.633,27.839,2.47
2006-02-26 13:00,30.743,24.535,27.669,2.39
2006-02-26 14:00,30.695,24.495,27.655,2.42
2006-02-26 15:00,30.615,24.429,27.612,2.45
2006-02-26 16:00,30.742,24.523,27.789,2.54
2006-02-26 17:00,30.867,24.621,27.921,2.58
2006-02-26 18:00,30.697,24.485,27.776,2.57
2006-02-26 19:00,29.749,23.757,26.670,2.14
2006-02-26 20:00,29.702,23.723,26.599,2.10
2006-02-26 21:00,29.727,23.745,26.596,2.07
2006-02-26 22:00,29.938,23.911,26.796,2.11
2006-02-26 23:00,30.164,24.087,27.044,2.19
2006-02-27 00:00,,,,
2006-02-27 01:00,30.522,24.367,27.396,2.27
2006-02-27 02:00,30.333,24.230,27.086,2.07
2006-02-27 03:00,30.493,24.351,27.297,2.17
2006-02-27 04:00,30.565,24.406,27.377,2.20
2006-02-27 05:00,30.504,24.362,27.272,2.13
2006-02-27 06:00,30.424,24.302,27.161,2.07
2006-02-27 07:00,30.491,24.358,27.201,2.05
2006-02-27 08:00,30.218,24.157,26.766,1.77
2006-02-27 09:00,30.312,24.229,26.887,1.83
2006-02-27 10:00,30.096,24.068,26.560,1.63
2006-02-27 12:00,30.430,24.324,26.971,1.82
2006-02-27 13:00,30.523,24.394,27.097,1.88
2006-02-27 14:00,30.571,24.431,27.150,1.90
2006-02-27 15:00,30.786,24.595,27.428,2.04
2006-02-27 16:00,30.748,24.563,27.408,2.05
2006-02-27 17:00,30.633,24.474,27.284,2.01
2006-02-27 18:00,30.638,24.479,27.273,1.99
2006-02-27 19:00,30.553,24.416,27.145,1.91
2006-02-27 20:00,30.356,24.270,26.839,1.73
2006-02-27 21:00,30.312,24.238,26.768,1.68
2006-02-27 22:00,30.419,24.321,26.885,1.72
2006-02-27 23:00,30.442,24.343,26.873,1.68
2006-02-28 00:00,30.475,24.371,26.874,1.65
2006-02-28 01:00,30.682,24.524,27.191,1.84
2006-02-28 02:00,30.753,24.580,27.262,1.86
2006-02-28 03:00,30.727,24.563,27.203,1.81
2006-02-28 04:00,30.774,24.600,27.241,1.81
2006-02-28 05:00,30.718,24.561,27.123,1.72
2006-02-28 06:00,30.834,24.648,27.290,1.81
2006-02-28 07:00,30.826,24.642,27.280,1.81
2006-02-28 08:00,30.839,24.652,27.295,1.81
2006-02-28 09:00,30.876,24.681,27.341,1.83
2006-02-28 10:00,30.874,24.680,27.329,1.82
2006-02-28 11:00,30.895,24.697,27.332,1.80
2006-02-28 12:00,30.898,24.701,27.323,1.79
2006-02-28 13:00,30.925,24.720,27.364,1.81
2006-02-28 15:00,30.964,24.749,27.436,1.86
2006-02-28 16:00,30.989,24.770,27.440,1.84
2006-02-28 17:00,31.008,24.782,27.499,1.90
2006-02-28 18:00,31.048,24.812,27.549,1.92
2006-02-28 19:00,31.037,24.802,27.557,1.94
2006-02-28 20:00,31.030,24.797,27.540,1.93
2006-02-28 21:00,31.078,24.835,27.584,1.93
2006-02-28 22:00,,,,
2006-02-28 23:00,31.068,24.829,27.553,1.90
2006-03-01 00:00,,,,
2006-03-01 01:00,31.025,24.802,27.436,1.80
2006-03-01 02:00,31.007,24.793,27.347,1.71
2006-03-01 03:00,31.066,24.831,27.506,1.85
2006-03-01 04:00,31.107,24.861,27.575,1.89
2006-03-01 05:00,31.195,24.929,27.670,1.92
2006-03-01 06:00,31.279,24.986,27.861,2.08
2006-03-01 07:00,31.311,25.018,27.822,2.00
2006-03-01 08:00,31.156,24.901,27.608,1.88
2006-03-01 09:00,31.154,24.900,27.595,1.87
2006-03-01 10:00,31.190,24.926,27.653,1.91
2006-03-01 11:00,31.190,24.929,27.626,1.87
2006-03-01 12:00,31.204,24.942,27.608,1.84
2006-03-01 13:00,31.270,24.983,27.808,2.02
2006-03-01 14:00,31.397,25.070,28.073,2.22
2006-03-01 15:00,31.410,25.084,28.046,2.18
2006-03-01 16:00,31.419,25.091,28.047,2.17
2006-03-01 17:00,31.429,25.097,28.080,2.20
2006-03-01 18:00,31.409,25.078,28.102,2.25
2006-03-01 19:00,31.293,24.992,27.939,2.16
2006-03-01 20:00,31.335,25.016,28.076,2.29
2006-03-01 21:00,31.291,24.988,27.964,2.19
2006-03-01 22:00,31.328,25.019,27.970,2.17
2006-03-01 23:00,31.280,24.991,27.814,2.02
2006-03-02 00:00,,,,
2006-03-02 01:00,31.319,25.020,27.863,2.04
2006-03-02 02:00,31.373,25.053,28.031,2.20
2006-03-02 03:00,31.323,25.022,27.892,2.07
2006-03-02 04:00,31.358,25.048,27.939,2.10
2006-03-02 05:00,31.402,25.079,28.025,2.16
2006-03-02 06:00,31.402,25.078,28.026,2.16
2006-03-02 07:00,31.398,25.083,27.935,2.05
2006-03-02 08:00,31.407,25.087,27.989,2.11
2006-03-02 09:00,31.393,25.083,27.888,2.00
2006-03-02 10:00,31.338,25.036,27.871,2.03
2006-03-02 11:00,31.280,25.004,27.668,1.84
2006-03-02 12:00,31.329,25.033,27.822,1.98
2006-03-02 13:00,,,,
2006-03-02 14:00,31.412,25.091,27.982,2.10
2006-03-02 15:00,31.419,25.095,28.010,2.12
2006-03-02 16:00,31.528,25.175,28.173,2.22
2006-03-02 17:00,,,,
2006-03-02 18:00,31.443,25.101,28.172,2.30
2006-03-02 19:00,31.467,25.120,28.199,2.31
2006-03-02 20:00,31.412,25.082,28.090,2.23
2006-03-02 21:00,31.386,25.067,28.001,2.15
2006-03-02 22:00,31.347,25.032,28.018,2.21
2006-03-03 00:00,31.285,24.994,27.837,2.04
2006-03-03 01:00,31.433,25.096,28.140,2.27
2006-03-03 02:00,31.515,25.159,28.231,2.30
2006-03-03 03:00,31.532,25.176,28.207,2.26
2006-03-03 04:00,31.618,25.242,28.301,2.29
2006-03-03 05:00,31.634,25.254,28.331,2.31
2006-03-03 06:00,31.647,25.264,28.340,2.30
2006-03-03 07:00,31.605,25.236,28.247,2.23
2006-03-03 08:00,31.539,25.187,28.145,2.17
2006-03-03 09:00,31.520,25.173,28.123,2.16
2006-03-03 10:00,31.510,25.159,28.177,2.24
2006-03-03 11:00,31.446,25.115,28.044,2.14
2006-03-03 12:00,31.362,25.059,27.849,1.98
2006-03-03 13:00,31.367,25.067,27.810,1.93
2006-03-03 14:00,31.381,25.074,27.865,1.98
2006-03-03 15:00,31.420,25.101,27.946,2.04
2006-03-03 16:00,31.547,25.191,28.189,2.22
2006-03-03 17:00,31.543,25.188,28.183,2.21
2006-03-03 18:00,31.488,25.146,28.113,2.18
2006-03-03 19:00,31.534,25.179,28.186,2.23
2006-03-03 20:00,31.543,25.186,28.198,2.23
2006-03-03 21:00,31.437,25.110,28.011,2.11
2006-03-03 22:00,31.408,25.087,27.988,2.11
2006-03-03 23:00,31.411,25.092,27.969,2.08
2006-03-04 00:00,31.424,25.103,27.974,2.07
2006-03-04 01:00,31.431,25.110,27.955,2.04
2006-03-04 02:00,31.366,25.063,27.856,1.98
2006-03-04 03:00,31.395,25.085,27.887,1.99
2006-03-04 05:00,31.564,25.210,28.136,2.13
2006-03-04 06:00,31.577,25.222,28.127,2.11
2006-03-04 07:00,31.521,25.181,28.039,2.06
2006-03-04 08:00,31.486,25.155,27.988,2.03
2006-03-04 09:00,31.566,25.214,28.119,2.11
2006-03-04 10:00,31.366,25.079,27.666,1.75
2006-03-04 11:00,31.342,25.056,27.685,1.79
2006-03-04 12:00,31.377,25.082,27.741,1.83
2006-03-04 13:00,31.343,25.052,27.737,1.86
2006-03-04 14:00,31.352,25.055,27.793,1.92
2006-03-04 15:00,31.384,25.076,27.880,2.00
2006-03-04 16:00,31.380,25.072,27.887,2.01
2006-03-04 17:00,31.505,25.161,28.110,2.16
2006-03-04 18:00,31.570,25.209,28.210,2.22
2006-03-04 19:00,31.419,25.096,27.999,2.11
2006-03-04 20:00,31.433,25.108,27.991,2.09
2006-03-04 21:00,31.502,25.162,28.071,2.12
2006-03-04 22:00,31.406,25.090,27.945,2.06
2006-03-04 23:00,31.369,25.063,27.884,2.02
2006-03-05 00:00,31.386,25.078,27.873,1.99
2006-03-05 01:00,31.357,25.058,27.817,1.95
2006-03-05 02:00,31.347,25.050,27.802,1.94
2006-03-05 03:00,31.343,25.049,27.775,1.91
2006-03-05 04:00,31.392,25.084,27.857,1.96
2006-03-05 05:00,31.489,25.158,27.982,2.02
2006-03-05 06:00,31.534,25.191,28.051,2.06
2006-03-05 07:00,31.418,25.108,27.846,1.92
2006-03-05 08:00,31.438,25.122,27.898,1.96
2006-03-05 09:00,31.463,25.141,27.930,1.98
2006-03-05 10:00,31.439,25.125,27.874,1.93
2006-03-05 11:00,31.280,25.006,27.644,1.80
2006-03-05 12:00,31.226,24.967,27.549,1.74
2006-03-05 13:00,31.079,24.852,27.395,1.69
2006-03-05 14:00,31.065,24.834,27.460,1.79
2006-03-05 15:00,31.051,24.819,27.489,1.84
2006-03-05 16:00,31.143,24.883,27.682,1.99
2006-03-05 17:00,31.260,24.971,27.846,2.08
2006-03-05 18:00,31.270,24.970,27.947,2.20
2006-03-05 19:00,31.406,25.080,28.047,2.18
2006-03-05 20:00,31.365,25.044,28.052,2.23
2006-03-05 21:00,31.369,25.046,28.061,2.24
2006-03-05 22:00,31.385,25.060,28.071,2.23
2006-03-05 23:00,31.317,25.012,27.948,2.15
2006-03-06 00:00,31.158,24.892,27.726,2.03
2006-03-06 01:00,31.065,24.820,27.628,2.00
2006-03-06 02:00,30.989,24.762,27.532,1.96
2006-03-06 03:00,31.032,24.800,27.528,1.91
2006-03-06 04:00,31.074,24.838,27.516,1.85
2006-03-06 05:00,31.152,24.900,27.585,1.86
2006-03-06 06:00,31.254,24.978,27.702,1.90
2006-03-06 07:00,31.384,25.077,27.861,1.97
2006-03-06 08:00,31.284,25.003,27.719,1.89
2006-03-06 09:00,31.318,25.030,27.751,1.90
2006-03-06 10:00,31.307,25.022,27.734,1.89
2006-03-06 11:00,31.133,24.888,27.527,1.81
2006-03-06 13:00,31.230,24.963,27.637,1.85
2006-03-06 14:00,31.115,24.872,27.530,1.83
2006-03-06 15:00,31.083,24.844,27.531,1.86
2006-03-06 16:00,31.152,24.895,27.633,1.92
2006-03-06 17:00,31.133,24.869,27.745,2.08
2006-03-06 18:00,31.090,24.818,27.896,2.32
2006-03-06 19:00,31.319,24.997,28.124,2.37
2006-03-06 20:00,31.233,24.938,27.947,2.23
2006-03-06 21:00,31.281,24.988,27.859,2.07
2006-03-06 22:00,31.218,24.931,27.883,2.17
2006-03-06 23:00,31.071,24.822,27.661,2.04
2006-03-07 00:00,31.067,24.830,27.537,1.89
2006-03-07 01:00,31.011,24.793,27.394,1.76
2006-03-07 02:00,30.965,24.751,27.426,1.85
2006-03-07 03:00,30.959,24.745,27.425,1.85
2006-03-07 04:00,30.939,24.732,27.375,1.81
2006-03-07 05:00,30.930,24.727,27.340,1.78
2006-03-07 06:00,30.954,24.746,27.373,1.79
2006-03-07 07:00,,,,
2006-03-07 08:00,31.059,24.820,27.571,1.94
2006-03-07 09:00,31.162,24.899,27.688,1.98
2006-03-07 10:00,31.296,25.004,27.828,2.02
2006-03-07 11:00,31.258,24.974,27.781,2.00
2006-03-07 12:00,31.225,24.951,27.726,1.96
2006-03-07 13:00,31.195,24.929,27.676,1.93
2006-03-07 14:00,31.166,24.908,27.617,1.89
2006-03-07 15:00,31.094,24.851,27.570,1.90
2006-03-07 16:00,31.075,24.832,27.600,1.96
2006-03-07 17:00,31.097,24.845,27.655,2.01
2006-03-07 18:00,31.158,24.889,27.767,2.08
2006-03-07 19:00,31.143,24.867,27.860,2.22
2006-03-07 20:00,31.201,24.916,27.882,2.18
2006-03-07 21:00,31.179,24.900,27.854,2.17
2006-03-07 22:00,31.209,24.927,27.829,2.11
2006-03-07 23:00,31.086,24.820,27.829,2.23
2006-03-08 00:00,30.996,24.770,27.517,1.93
2006-03-08 01:00,30.967,24.750,27.452,1.88
2006-03-08 02:00,30.974,24.747,27.558,2.01
2006-03-08 03:00,30.953,24.733,27.514,1.97
2006-03-08 04:00,30.926,24.711,27.491,1.97
2006-03-08 05:00,30.947,24.720,27.591,2.08
2006-03-08 06:00,30.974,24.745,27.579,2.03
2006-03-08 07:00,30.984,24.759,27.521,1.95
2006-03-08 08:00,31.058,24.812,27.645,2.03
2006-03-08 09:00,31.198,24.927,27.723,1.99
2006-03-08 10:00,31.338,25.035,27.894,2.06
2006-03-08 11:00,31.340,25.038,27.878,2.04
2006-03-08 12:00,31.221,24.946,27.738,1.98
2006-03-08 13:00,31.268,24.980,27.823,2.04
2006-03-08 14:00,31.347,25.043,27.889,2.05
2006-03-08 15:00,31.389,25.072,27.973,2.11
2006-03-08 16:00,31.318,25.011,27.959,2.16
2006-03-08 17:00,31.203,24.915,27.907,2.21
2006-03-08 18:00,31.169,24.888,27.892,2.23
2006-03-08 19:00,31.123,24.852,27.845,2.22
2006-03-08 20:00,,,,
2006-03-08 21:00,31.083,24.810,27.918,2.35
2006-03-08 22:00,31.078,24.818,27.774,2.17
2006-03-08 23:00,31.056,24.806,27.695,2.10
2006-03-09 00:00,31.019,24.782,27.602,2.02
2006-03-09 01:00,31.009,24.773,27.605,2.03
2006-03-09 02:00,30.986,24.759,27.540,1.97
2006-03-09 03:00,30.967,24.742,27.540,1.99
2006-03-09 04:00,30.913,24.696,27.533,2.04
2006-03-09 06:00,,,,
2006-03-09 07:00,,,,
2006-03-09 08:00,31.005,24.763,27.679,2.13
2006-03-09 09:00,31.198,24.919,27.817,2.11
2006-03-09 10:00,31.202,24.925,27.787,2.06
2006-03-09 11:00,31.195,24.920,27.781,2.06
2006-03-09 12:00,31.198,24.919,27.820,2.11
2006-03-09 13:00,31.185,24.907,27.834,2.14
2006-03-09 14:00,31.210,24.926,27.858,2.14
2006-03-09 15:00,31.297,24.994,27.955,2.18
2006-03-09 16:00,31.197,24.913,27.886,2.19
2006-03-09 17:00,31.104,24.832,27.872,2.27
2006-03-09 18:00,31.063,24.801,27.823,2.25
2006-03-09 19:00,31.058,24.798,27.810,2.24
2006-03-09 20:00,31.020,24.776,27.681,2.12
2006-03-09 21:00,31.019,24.776,27.679,2.11
2006-03-09 22:00,31.026,24.781,27.691,2.12
2006-03-09 23:00,30.997,24.759,27.653,2.10
2006-03-10 00:00,30.985,24.752,27.611,2.06
2006-03-10 01:00,,,,
2006-03-10 02:00,30.970,24.747,27.524,1.97
2006-03-10 03:00,30.953,24.733,27.506,1.96
2006-03-10 04:00,30.965,24.742,27.527,1.98
2006-03-10 05:00,31.014,24.780,27.577,1.99
2006-03-10 06:00,31.025,24.789,27.592,2.00
2006-03-10 07:00,31.056,24.814,27.606,1.98
2006-03-10 08:00,31.080,24.833,27.630,1.99
2006-03-10 09:00,31.096,24.846,27.643,1.99
2006-03-10 10:00,,,,
2006-03-10 11:00,31.129,24.872,27.665,1.99
2006-03-10 12:00,31.118,24.863,27.661,1.99
2006-03-10 13:00,31.096,24.844,27.655,2.01
2006-03-10 14:00,31.098,24.846,27.659,2.01
2006-03-10 15:00,31.068,24.820,27.663,2.04
2006-03-10 16:00,31.008,24.770,27.636,2.07
2006-03-10 17:00,30.976,24.742,27.632,2.10
2006-03-10 18:00,30.961,24.729,27.633,2.12
2006-03-10 19:00,30.945,24.716,27.617,2.11
2006-03-10 21:00,31.040,24.793,27.688,2.10
2006-03-10 22:00,31.105,24.844,27.750,2.12
2006-03-10 23:00,,,,
2006-03-11 00:00,31.165,24.892,27.800,2.12
2006-03-11 01:00,31.158,24.886,27.800,2.12
2006-03-11 02:00,31.111,24.849,27.754,2.12
2006-03-11 03:00,31.056,24.806,27.703,2.11
2006-03-11 04:00,31.066,24.812,27.728,2.13
2006-03-11 05:00,31.079,24.822,27.748,2.14
2006-03-11 06:00,30.981,24.740,27.709,2.19
2006-03-11 07:00,30.930,24.696,27.709,2.24
2006-03-11 08:00,30.929,24.697,27.682,2.21
2006-03-11 09:00,30.944,24.710,27.683,2.20
2006-03-11 10:00,30.958,24.722,27.685,2.18
2006-03-11 11:00,31.009,24.762,27.729,2.19
2006-03-11 12:00,30.995,24.750,27.728,2.20
2006-03-11 13:00,31.097,24.826,27.876,2.28
2006-03-11 14:00,31.149,24.864,27.956,2.33
2006-03-11 15:00,31.171,24.881,27.987,2.35
2006-03-11 16:00,31.213,24.912,28.038,2.37
2006-03-11 17:00,31.190,24.890,28.062,2.42
2006-03-11 18:00,31.199,24.895,28.098,2.46
2006-03-11 19:00,31.164,24.868,28.060,2.44
2006-03-11 20:00,31.168,24.870,28.062,2.44
2006-03-11 21:00,31.159,24.866,28.036,2.42
2006-03-11 22:00,31.169,24.875,28.030,2.40
2006-03-12 00:00,31.198,24.899,28.041,2.39
2006-03-12 01:00,31.184,24.890,28.004,2.36
2006-03-12 02:00,31.179,24.889,27.972,2.32
2006-03-12 03:00,31.218,24.919,28.007,2.32
2006-03-12 04:00,31.210,24.912,28.013,2.34
2006-03-12 05:00,31.155,24.870,27.943,2.31
2006-03-12 06:00,31.164,24.879,27.937,2.29
2006-03-12 07:00,31.124,24.850,27.877,2.26
2006-03-12 08:00,31.123,24.847,27.894,2.28
2006-03-12 09:00,31.128,24.852,27.889,2.27
2006-03-12 10:00,31.128,24.853,27.875,2.25
2006-03-12 11:00,31.130,24.856,27.861,2.23
2006-03-12 12:00,31.143,24.870,27.830,2.18
2006-03-12 14:00,31.155,24.865,27.999,2.38
2006-03-12 15:00,31.191,24.883,28.155,2.54
2006-03-12 16:00,31.215,24.897,28.219,2.59
2006-03-12 17:00,31.173,24.863,28.192,2.60
2006-03-12 18:00,31.118,24.827,28.067,2.50
2006-03-12 19:00,31.115,24.818,28.124,2.58
2006-03-12 20:00,31.099,24.812,28.048,2.50
2006-03-12 21:00,31.141,24.847,28.060,2.47
2006-03-12 22:00,,,,
2006-03-12 23:00,31.173,24.872,28.100,2.49
2006-03-13 00:00,31.209,24.897,28.164,2.53
2006-03-13 01:00,31.239,24.924,28.157,2.49
2006-03-13 02:00,31.254,24.936,28.168,2.49
2006-03-13 03:00,31.248,24.932,28.155,2.48
2006-03-13 04:00,31.226,24.916,28.125,2.46
2006-03-13 05:00,31.225,24.916,28.113,2.45
2006-03-13 06:00,31.234,24.923,28.121,2.45
2006-03-13 07:00,31.216,24.910,28.087,2.43
2006-03-13 08:00,31.206,24.905,28.052,2.39
2006-03-13 09:00,31.217,24.915,28.043,2.37
2006-03-13 10:00,31.209,24.909,28.031,2.36
2006-03-13 11:00,31.207,24.910,28.004,2.33
2006-03-13 12:00,31.215,24.913,28.053,2.38
2006-03-13 13:00,31.191,24.891,28.057,2.41
2006-03-13 14:00,31.228,24.909,28.211,2.57
2006-03-13 15:00,31.356,24.998,28.459,2.75
2006-03-13 16:00,31.379,25.008,28.557,2.85
2006-03-13 17:00,31.321,24.959,28.537,2.88
2006-03-13 18:00,31.310,24.956,28.469,2.81
2006-03-13 19:00,31.281,24.937,28.407,2.76
2006-03-13 20:00,31.280,24.946,28.308,2.64
2006-03-13 21:00,31.239,24.911,28.291,2.66
2006-03-13 22:00,31.260,24.928,28.310,2.66
2006-03-13 23:00,31.250,24.921,28.296,2.65
2006-03-14 00:00,31.259,24.926,28.319,2.67
2006-03-14 01:00,31.274,24.936,28.360,2.71
2006-03-14 02:00,31.368,25.010,28.440,2.71
2006-03-14 03:00,31.462,25.077,28.594,2.81
2006-03-14 04:00,31.517,25.123,28.623,2.79
2006-03-14 05:00,31.510,25.118,28.613,2.78
2006-03-14 06:00,31.459,25.077,28.571,2.78
2006-03-14 07:00,31.431,25.057,28.521,2.75
2006-03-14 08:00,31.401,25.044,28.389,2.61
2006-03-14 09:00,31.347,25.001,28.347,2.62
2006-03-14 10:00,31.377,25.025,28.370,2.61
2006-03-14 11:00,31.408,25.045,28.443,2.67
2006-03-14 12:00,31.440,25.064,28.539,2.76
2006-03-14 13:00,31.526,25.131,28.623,2.78
2006-03-14 14:00,31.529,25.135,28.603,2.75
2006-03-14 15:00,31.558,25.158,28.634,2.76
2006-03-14 16:00,31.586,25.179,28.674,2.78
2006-03-14 18:00,31.508,25.108,28.691,2.88
2006-03-14 19:00,31.489,25.103,28.578,2.76
2006-03-14 20:00,31.214,24.870,28.486,2.93
2006-03-14 21:00,31.241,24.888,28.544,2.97
2006-03-14 22:00,31.156,24.829,28.392,2.87
2006-03-14 23:00,31.189,24.864,28.320,2.74
2006-03-15 00:00,31.295,24.961,28.287,2.60
2006-03-15 01:00,31.301,24.961,28.337,2.65
2006-03-15 02:00,,,,
2006-03-15 03:00,31.378,25.023,28.400,2.65
2006-03-15 04:00,31.379,25.025,28.386,2.63
2006-03-15 05:00,31.398,25.040,28.406,2.64
2006-03-15 06:00,31.461,25.090,28.456,2.64
2006-03-15 07:00,31.275,24.951,28.208,2.52
2006-03-15 08:00,31.296,24.971,28.181,2.46
2006-03-15 09:00,31.281,24.958,28.190,2.49
2006-03-15 10:00,31.251,24.929,28.221,2.56
2006-03-15 11:00,31.213,24.897,28.198,2.57
2006-03-15 12:00,31.211,24.897,28.187,2.56
2006-03-15 13:00,31.221,24.904,28.200,2.56
2006-03-15 14:00,31.242,24.921,28.219,2.56
2006-03-15 15:00,31.344,25.002,28.298,2.56
2006-03-15 16:00,,,,
2006-03-15 17:00,31.312,24.970,28.348,2.65
2006-03-15 18:00,31.304,24.962,28.359,2.67
2006-03-15 19:00,31.272,24.933,28.372,2.72
2006-03-15 20:00,31.263,24.924,28.383,2.75
2006-03-15 21:00,31.073,24.767,28.276,2.81
2006-03-15 22:00,31.075,24.769,28.276,2.81
2006-03-15 23:00,31.065,24.763,28.241,2.77
2006-03-16 00:00,31.102,24.797,28.227,2.72
2006-03-16 01:00,31.192,24.872,28.275,2.68
2006-03-16 02:00,31.312,24.970,28.349,2.65
2006-03-16 03:00,31.307,24.968,28.324,2.63
2006-03-16 04:00,,,,
2006-03-16 05:00,31.274,24.939,28.327,2.67
2006-03-16 06:00,31.197,24.878,28.250,2.65
2006-03-16 07:00,31.089,24.794,28.138,2.62
2006-03-16 08:00,31.028,24.747,28.076,2.61
2006-03-16 09:00,31.054,24.770,28.071,2.57
2006-03-16 10:00,30.979,24.712,27.994,2.55
2006-03-16 11:00,30.968,24.703,27.985,2.55
2006-03-16 12:00,30.977,24.711,27.984,2.54
2006-03-16 13:00,30.928,24.673,27.933,2.53
2006-03-16 14:00,31.006,24.731,28.034,2.58
2006-03-16 15:00,,,,
2006-03-16 16:00,31.068,24.776,28.142,2.65
2006-03-16 17:00,31.054,24.760,28.178,2.71
2006-03-16 18:00,31.148,24.833,28.273,2.73
2006-03-16 19:00,31.039,24.746,28.179,2.72
2006-03-16 20:00,31.106,24.800,28.241,2.73
2006-03-16 21:00,31.117,24.805,28.284,2.77
2006-03-16 22:00,31.129,24.814,28.294,2.77
2006-03-16 23:00,31.048,24.750,28.219,2.76
2006-03-17 00:00,31.044,24.756,28.128,2.65
2006-03-17 01:00,31.031,24.749,28.077,2.60
2006-03-17 02:00,30.855,24.616,27.859,2.51
2006-03-17 03:00,30.976,24.708,28.005,2.57
2006-03-17 04:00,30.938,24.680,27.948,2.54
2006-03-17 05:00,30.986,24.715,28.019,2.58
2006-03-17 06:00,30.845,24.609,27.834,2.49
2006-03-17 07:00,30.723,24.513,27.728,2.48
2006-03-17 08:00,30.669,24.479,27.582,2.35
2006-03-17 09:00,30.710,24.509,27.634,2.38
2006-03-17 10:00,30.604,24.427,27.527,2.35
2006-03-17 12:00,30.176,24.092,27.096,2.24
2006-03-17 13:00,30.183,24.097,27.112,2.26
2006-03-17 14:00,30.259,24.151,27.251,2.36
2006-03-17 15:00,30.384,24.242,27.446,2.48
2006-03-17 16:00,30.511,24.340,27.591,2.53
2006-03-17 17:00,30.764,24.535,27.877,2.63
2006-03-17 18:00,30.683,24.456,27.944,2.80
2006-03-17 19:00,30.455,24.275,27.756,2.80
2006-03-17 20:00,30.629,24.396,28.070,3.01
2006-03-17 21:00,30.207,24.068,27.642,2.91
2006-03-17 22:00,30.072,23.968,27.444,2.80
2006-03-17 23:00,30.143,24.035,27.406,2.68
2006-03-18 00:00,30.172,24.063,27.375,2.61
2006-03-18 01:00,30.259,24.136,27.410,2.56
2006-03-18 02:00,30.400,24.251,27.494,2.52
2006-03-18 03:00,30.660,24.457,27.728,2.55
2006-03-18 04:00,30.716,24.506,27.728,2.49
2006-03-18 05:00,30.786,24.564,27.771,2.47
2006-03-18 06:00,30.715,24.514,27.633,2.37
2006-03-18 07:00,30.350,24.232,27.240,2.25
2006-03-18 08:00,30.299,24.192,27.177,2.22
2006-03-18 09:00,30.519,24.363,27.409,2.29
2006-03-18 10:00,30.390,24.268,27.222,2.18
2006-03-18 11:00,30.394,24.278,27.148,2.08
2006-03-18 12:00,30.461,24.328,27.240,2.13
2006-03-18 13:00,30.507,24.361,27.322,2.19
2006-03-18 14:00,30.570,24.402,27.474,2.32
2006-03-18 15:00,30.832,24.591,27.913,2.60
2006-03-18 16:00,30.613,24.418,27.705,2.57
2006-03-18 17:00,30.730,24.500,27.922,2.72
2006-03-18 18:00,30.631,24.412,27.927,2.83
2006-03-18 19:00,30.484,24.301,27.748,2.76
2006-03-18 20:00,30.373,24.212,27.655,2.76
2006-03-18 21:00,30.169,24.055,27.428,2.68
2006-03-18 22:00,,,,
2006-03-18 23:00,29.939,23.887,27.079,2.47
2006-03-19 00:00,,,,
2006-03-19 01:00,30.162,24.065,27.259,2.47
2006-03-19 02:00,30.554,24.379,27.580,2.47
2006-03-19 03:00,30.568,24.394,27.537,2.40
2006-03-19 04:00,30.594,24.413,27.587,2.44
2006-03-19 05:00,,,,
2006-03-19 06:00,30.900,24.649,27.926,2.55
2006-03-19 07:00,30.798,24.575,27.760,2.44
2006-03-19 08:00,30.593,24.422,27.481,2.30
2006-03-19 09:00,30.722,24.524,27.597,2.32
2006-03-19 10:00,,,,
2006-03-19 11:00,30.393,24.280,27.115,2.04
2006-03-19 12:00,30.448,24.320,27.206,2.10
2006-03-19 13:00,30.347,24.240,27.117,2.09
2006-03-19 14:00,30.400,24.273,27.252,2.21
2006-03-19 15:00,30.388,24.257,27.314,2.30
2006-03-19 16:00,30.401,24.262,27.395,2.39
2006-03-19 17:00,30.365,24.227,27.427,2.47
2006-03-19 18:00,30.404,24.250,27.545,2.58
2006-03-19 19:00,30.213,24.102,27.344,2.53
2006-03-19 20:00,30.292,24.162,27.448,2.58
2006-03-19 21:00,30.153,24.039,27.445,2.72
2006-03-19 22:00,30.171,24.060,27.393,2.63
2006-03-19 23:00,30.050,23.973,27.191,2.50
2006-03-20 00:00,30.022,23.958,27.095,2.41
2006-03-20 01:00,30.014,23.954,27.063,2.37
2006-03-20 02:00,,,,
2006-03-20 03:00,30.349,24.223,27.320,2.35
2006-03-20 04:00,30.416,24.282,27.315,2.28
2006-03-20 05:00,30.583,24.413,27.478,2.31